| time (UTC) | temp F | wind direction | speed knots | gust knots | rain 1hr in | rain 24hr in | rain mn in | humidity % | barometer mb |
| 20260504045413 | 32 | 235 | 0.0 | 0.0 | 0.00 | 0.00 | 0.00 | 96 | 1016.8 |
| 20260504044910 | 32 | 235 | 0.0 | 0.0 | 0.00 | 0.00 | 0.00 | 96 | 1017.0 |
| 20260504044408 | 32 | 235 | 0.0 | 0.0 | 0.00 | 0.00 | 0.00 | 96 | 1016.9 |
| 20260504043905 | 32 | 260 | 0.9 | 0.9 | 0.00 | 0.00 | 0.00 | 96 | 1016.9 |
| 20260504043401 | 32 | 227 | 0.0 | 0.9 | 0.00 | 0.00 | 0.00 | 96 | 1016.9 |
| 20260504042859 | 32 | 243 | 0.0 | 0.0 | 0.00 | 0.00 | 0.00 | 95 | 1016.7 |
| 20260504042355 | 32 | 283 | 0.0 | 0.0 | 0.00 | 0.00 | 0.00 | 95 | 1016.7 |
| 20260504041851 | 32 | 15 | 0.0 | 0.0 | 0.00 | 0.00 | 0.00 | 94 | 1016.8 |
| 20260504041348 | 33 | 117 | 0.9 | 1.7 | 0.00 | 0.00 | 0.00 | 94 | 1016.8 |
| 20260504040844 | 33 | 117 | 0.9 | 1.7 | 0.00 | 0.00 | 0.00 | 94 | 1016.7 |
| 20260504040342 | 33 | 117 | 0.9 | 1.7 | 0.00 | 0.00 | 0.00 | 94 | 1016.9 |
| 20260504035837 | 33 | 117 | 0.9 | 1.7 | 0.00 | 0.00 | 0.00 | 94 | 1016.9 |
| 20260504035336 | 34 | 315 | 0.0 | 0.0 | 0.00 | 0.00 | 0.00 | 94 | 1016.8 |
| 20260504034832 | 33 | 212 | 0.0 | 0.9 | 0.00 | 0.00 | 0.00 | 93 | 1016.7 |
| 20260504034330 | 33 | 193 | 0.0 | 0.0 | 0.00 | 0.00 | 0.00 | 93 | 1016.7 |
| 20260504033827 | 34 | 104 | 0.0 | 0.0 | 0.00 | 0.00 | 0.00 | 93 | 1016.6 |
| 20260504033325 | 34 | 221 | 0.0 | 0.0 | 0.00 | 0.00 | 0.00 | 93 | 1016.7 |
| 20260504032821 | 34 | 296 | 0.9 | 1.7 | 0.00 | 0.00 | 0.00 | 92 | 1016.9 |
| 20260504032318 | 35 | 339 | 0.0 | 0.0 | 0.00 | 0.00 | 0.00 | 92 | 1016.9 |
| 20260504031815 | 35 | 339 | 0.0 | 0.0 | 0.00 | 0.00 | 0.00 | 92 | 1016.8 |
| 20260504031312 | 35 | 340 | 0.0 | 0.9 | 0.00 | 0.00 | 0.00 | 90 | 1016.6 |
| 20260504030808 | 35 | 340 | 0.0 | 0.9 | 0.00 | 0.00 | 0.00 | 90 | 1016.8 |
| 20260504030306 | 35 | 340 | 0.0 | 0.9 | 0.00 | 0.00 | 0.00 | 90 | 1016.6 |
| 20260504025801 | 36 | 260 | 0.0 | 0.9 | 0.00 | 0.00 | 0.00 | 90 | 1016.9 |
| 20260504025259 | 36 | 260 | 0.0 | 0.9 | 0.00 | 0.00 | 0.00 | 90 | 1016.7 |
| 20260504024755 | 36 | 260 | 0.0 | 0.9 | 0.00 | 0.00 | 0.00 | 90 | 1016.7 |
| 20260504024252 | 36 | 326 | 0.0 | 1.7 | 0.00 | 0.00 | 0.00 | 89 | 1016.9 |
| 20260504023749 | 37 | 269 | 0.0 | 0.0 | 0.00 | 0.00 | 0.00 | 83 | 1016.7 |
| 20260504023245 | 37 | 269 | 0.0 | 0.0 | 0.00 | 0.00 | 0.00 | 83 | 1016.7 |
| 20260504022741 | 37 | 269 | 0.0 | 0.0 | 0.00 | 0.00 | 0.00 | 83 | 1016.8 |
| 20260504022237 | 37 | 269 | 0.0 | 0.0 | 0.00 | 0.00 | 0.00 | 83 | 1016.9 |
| 20260504021735 | 37 | 269 | 0.0 | 0.0 | 0.00 | 0.00 | 0.00 | 83 | 1016.9 |
| 20260504021232 | 37 | 269 | 0.0 | 0.0 | 0.00 | 0.00 | 0.00 | 83 | 1016.7 |
| 20260504020729 | 38 | 135 | 0.0 | 0.0 | 0.00 | 0.00 | 0.00 | 82 | 1016.7 |
| 20260504020226 | 38 | 135 | 0.0 | 0.0 | 0.00 | 0.00 | 0.00 | 82 | 1016.7 |
| 20260504015722 | 39 | 293 | 0.0 | 0.0 | 0.00 | 0.00 | 0.00 | 79 | 1016.6 |
| 20260504015218 | 39 | 293 | 0.0 | 0.0 | 0.00 | 0.00 | 0.00 | 78 | 1016.6 |
| 20260504014714 | 40 | 291 | 0.0 | 0.0 | 0.00 | 0.00 | 0.00 | 77 | 1016.5 |
| 20260504014212 | 41 | 256 | 0.0 | 0.0 | 0.00 | 0.00 | 0.00 | 76 | 1016.5 |
| 20260504013709 | 41 | 252 | 0.0 | 0.0 | 0.00 | 0.00 | 0.00 | 74 | 1016.4 |
| 20260504013206 | 41 | 252 | 0.0 | 0.0 | 0.00 | 0.00 | 0.00 | 74 | 1016.5 |
| 20260504012703 | 41 | 212 | 0.0 | 0.0 | 0.00 | 0.00 | 0.00 | 73 | 1016.6 |
| 20260504012201 | 42 | 130 | 0.0 | 0.9 | 0.00 | 0.00 | 0.00 | 70 | 1016.5 |
| 20260504011657 | 43 | 245 | 0.0 | 0.0 | 0.00 | 0.00 | 0.00 | 67 | 1016.4 |
| 20260504011153 | 44 | 240 | 0.0 | 0.0 | 0.00 | 0.00 | 0.00 | 67 | 1016.3 |
| 20260504010649 | 46 | 289 | 0.0 | 0.0 | 0.00 | 0.00 | 0.00 | 62 | 1016.3 |
| 20260504010145 | 46 | 289 | 0.0 | 0.0 | 0.00 | 0.00 | 0.00 | 62 | 1016.2 |
| 20260504005643 | 47 | 30 | 0.0 | 0.0 | 0.00 | 0.00 | 0.00 | 57 | 1016.4 |
| 20260504005139 | 47 | 30 | 0.0 | 0.0 | 0.00 | 0.00 | 0.00 | 57 | 1016.4 |
| 20260504004637 | 49 | 168 | 0.0 | 1.7 | 0.00 | 0.00 | 0.00 | 52 | 1016.2 |
| 20260504004134 | 49 | 168 | 0.0 | 1.7 | 0.00 | 0.00 | 0.00 | 52 | 1016.2 |
| 20260504003630 | 51 | 354 | 0.0 | 0.9 | 0.00 | 0.00 | 0.00 | 48 | 1016.2 |
| 20260504003127 | 51 | 354 | 0.0 | 0.9 | 0.00 | 0.00 | 0.00 | 48 | 1016.1 |
| 20260504002624 | 51 | 40 | 0.0 | 4.3 | 0.00 | 0.00 | 0.00 | 48 | 1016.3 |
| 20260504002121 | 51 | 202 | 2.6 | 2.6 | 0.00 | 0.00 | 0.00 | 48 | 1016.1 |
| 20260504001619 | 51 | 98 | 0.0 | 2.6 | 0.00 | 0.00 | 0.00 | 47 | 1016.0 |
| 20260504001115 | 51 | 348 | 0.0 | 1.7 | 0.00 | 0.00 | 0.00 | 47 | 1016.0 |
| 20260504000613 | 52 | 96 | 1.7 | 3.5 | 0.00 | 0.00 | 0.00 | 45 | 1015.9 |
| 20260504000110 | 53 | 70 | 4.3 | 4.3 | 0.00 | 0.00 | 0.00 | 45 | 1015.9 |
| 20260503235608 | 54 | 95 | 0.9 | 7.8 | 0.00 | 0.00 | 0.00 | 43 | 1016.0 |
| 20260503235104 | 54 | 41 | 5.2 | 7.8 | 0.00 | 0.00 | 0.00 | 42 | 1015.9 |
| 20260503234602 | 55 | 26 | 3.5 | 9.6 | 0.00 | 0.00 | 0.00 | 41 | 1015.8 |
| 20260503234100 | 55 | 61 | 2.6 | 6.1 | 0.00 | 0.00 | 0.00 | 43 | 1016.0 |
| 20260503233556 | 55 | 63 | 3.5 | 3.5 | 0.00 | 0.00 | 0.00 | 42 | 1016.0 |
| 20260503233052 | 56 | 28 | 2.6 | 6.1 | 0.00 | 0.00 | 0.00 | 43 | 1016.0 |
| 20260503232549 | 56 | 63 | 2.6 | 7.8 | 0.00 | 0.00 | 0.00 | 41 | 1016.0 |
| 20260503232047 | 56 | 61 | 1.7 | 4.3 | 0.00 | 0.00 | 0.00 | 41 | 1015.8 |
| 20260503231544 | 57 | 22 | 4.3 | 5.2 | 0.00 | 0.00 | 0.00 | 40 | 1015.9 |
| 20260503231041 | 57 | 314 | 5.2 | 8.7 | 0.00 | 0.00 | 0.00 | 40 | 1015.9 |
| 20260503230537 | 57 | 51 | 2.6 | 7.8 | 0.00 | 0.00 | 0.00 | 40 | 1015.8 |
| 20260503230035 | 57 | 61 | 3.5 | 9.6 | 0.00 | 0.00 | 0.00 | 39 | 1015.9 |
| 20260503225532 | 57 | 36 | 5.2 | 8.7 | 0.00 | 0.00 | 0.00 | 40 | 1016.0 |
| 20260503225027 | 57 | 39 | 2.6 | 8.7 | 0.00 | 0.00 | 0.00 | 40 | 1015.6 |
| 20260503224525 | 57 | 60 | 6.1 | 8.7 | 0.00 | 0.00 | 0.00 | 38 | 1015.9 |
| 20260503224022 | 57 | 53 | 3.5 | 10.4 | 0.00 | 0.00 | 0.00 | 40 | 1015.8 |
| 20260503223520 | 57 | 107 | 9.6 | 11.3 | 0.00 | 0.00 | 0.00 | 39 | 1015.9 |
| 20260503223015 | 58 | 36 | 6.1 | 11.3 | 0.00 | 0.00 | 0.00 | 37 | 1015.9 |
| 20260503222514 | 58 | 145 | 3.5 | 9.6 | 0.00 | 0.00 | 0.00 | 41 | 1015.9 |
| 20260503222012 | 57 | 87 | 1.7 | 5.2 | 0.00 | 0.00 | 0.00 | 39 | 1015.9 |
| 20260503221510 | 57 | 94 | 5.2 | 10.4 | 0.00 | 0.00 | 0.00 | 40 | 1015.8 |
| 20260503221007 | 57 | 29 | 3.5 | 5.2 | 0.00 | 0.00 | 0.00 | 40 | 1015.8 |
| 20260503220503 | 56 | 33 | 6.1 | 12.2 | 0.00 | 0.00 | 0.00 | 39 | 1016.0 |
| 20260503215959 | 56 | 333 | 5.2 | 7.0 | 0.00 | 0.00 | 0.00 | 40 | 1016.1 |
| 20260503215457 | 58 | 30 | 5.2 | 9.6 | 0.00 | 0.00 | 0.00 | 40 | 1016.2 |
| 20260503214954 | 56 | 36 | 6.1 | 7.8 | 0.00 | 0.00 | 0.00 | 42 | 1016.1 |
| 20260503214452 | 56 | 39 | 6.1 | 7.8 | 0.00 | 0.00 | 0.00 | 40 | 1016.1 |
| 20260503213949 | 55 | 53 | 5.2 | 7.8 | 0.00 | 0.00 | 0.00 | 40 | 1015.9 |
| 20260503213447 | 56 | 55 | 5.2 | 8.7 | 0.00 | 0.00 | 0.00 | 40 | 1015.8 |
| 20260503212943 | 56 | 58 | 6.1 | 9.6 | 0.00 | 0.00 | 0.00 | 41 | 1016.0 |
| 20260503212440 | 56 | 46 | 4.3 | 7.8 | 0.00 | 0.00 | 0.00 | 41 | 1015.9 |
| 20260503211937 | 56 | 69 | 5.2 | 10.4 | 0.00 | 0.00 | 0.00 | 40 | 1015.8 |
| 20260503211435 | 56 | 83 | 4.3 | 8.7 | 0.00 | 0.00 | 0.00 | 40 | 1015.9 |
| 20260503210930 | 57 | 87 | 5.2 | 9.6 | 0.00 | 0.00 | 0.00 | 39 | 1016.1 |
| 20260503210427 | 57 | 74 | 7.8 | 11.3 | 0.00 | 0.00 | 0.00 | 41 | 1015.9 |
| 20260503205922 | 57 | 86 | 5.2 | 8.7 | 0.00 | 0.00 | 0.00 | 40 | 1015.8 |
| 20260503205419 | 58 | 62 | 5.2 | 7.0 | 0.00 | 0.00 | 0.00 | 45 | 1015.8 |
| 20260503204915 | 55 | 95 | 7.0 | 8.7 | 0.00 | 0.00 | 0.00 | 40 | 1016.0 |
| 20260503204413 | 55 | 64 | 8.7 | 10.4 | 0.00 | 0.00 | 0.00 | 39 | 1016.1 |
| 20260503203910 | 55 | 60 | 7.0 | 10.4 | 0.00 | 0.00 | 0.00 | 39 | 1016.1 |
| 20260503203407 | 56 | 40 | 6.1 | 8.7 | 0.00 | 0.00 | 0.00 | 38 | 1016.1 |
| 20260503202904 | 58 | 35 | 9.6 | 10.4 | 0.00 | 0.00 | 0.00 | 38 | 1016.1 |
| 20260503202402 | 58 | 22 | 4.3 | 7.8 | 0.00 | 0.00 | 0.00 | 41 | 1016.3 |
| 20260503201900 | 55 | 57 | 6.1 | 9.6 | 0.00 | 0.00 | 0.00 | 40 | 1016.2 |
| 20260503201357 | 57 | 333 | 4.3 | 9.6 | 0.00 | 0.00 | 0.00 | 41 | 1016.1 |
| 20260503200855 | 57 | 48 | 7.0 | 13.9 | 0.00 | 0.00 | 0.00 | 38 | 1016.3 |
| 20260503200350 | 56 | 97 | 3.5 | 8.7 | 0.00 | 0.00 | 0.00 | 43 | 1016.3 |
| 20260503195848 | 55 | 115 | 7.0 | 7.8 | 0.00 | 0.00 | 0.00 | 40 | 1016.4 |
| 20260503195344 | 55 | 41 | 8.7 | 13.0 | 0.00 | 0.00 | 0.00 | 41 | 1016.3 |
| 20260503194841 | 56 | 42 | 6.1 | 9.6 | 0.00 | 0.00 | 0.00 | 40 | 1016.5 |
| 20260503194337 | 57 | 73 | 6.1 | 13.0 | 0.00 | 0.00 | 0.00 | 43 | 1016.5 |
| 20260503193834 | 55 | 58 | 9.6 | 13.0 | 0.00 | 0.00 | 0.00 | 39 | 1016.5 |
| 20260503193330 | 57 | 29 | 4.3 | 13.9 | 0.00 | 0.00 | 0.00 | 39 | 1016.5 |
| 20260503192826 | 57 | 54 | 5.2 | 8.7 | 0.00 | 0.00 | 0.00 | 42 | 1016.7 |
| 20260503192321 | 55 | 46 | 3.5 | 8.7 | 0.00 | 0.00 | 0.00 | 40 | 1016.7 |
| 20260503191818 | 56 | 59 | 7.8 | 13.0 | 0.00 | 0.00 | 0.00 | 39 | 1016.8 |
| 20260503191315 | 55 | 21 | 4.3 | 8.7 | 0.00 | 0.00 | 0.00 | 44 | 1016.8 |
| 20260503190812 | 55 | 34 | 6.1 | 13.0 | 0.00 | 0.00 | 0.00 | 41 | 1016.9 |
| 20260503190309 | 55 | 102 | 6.1 | 13.0 | 0.00 | 0.00 | 0.00 | 42 | 1017.1 |
| 20260503185806 | 56 | 41 | 9.6 | 13.9 | 0.00 | 0.00 | 0.00 | 41 | 1016.7 |
| 20260503185301 | 55 | 24 | 6.1 | 11.3 | 0.00 | 0.00 | 0.00 | 40 | 1017.0 |
| 20260503184801 | 57 | 247 | 1.7 | 8.7 | 0.00 | 0.00 | 0.00 | 44 | 1016.9 |
| 20260503184258 | 56 | 73 | 7.8 | 16.5 | 0.00 | 0.00 | 0.00 | 41 | 1017.0 |
| 20260503183753 | 55 | 67 | 7.8 | 13.0 | 0.00 | 0.00 | 0.00 | 41 | 1017.3 |
| 20260503183252 | 54 | 47 | 7.0 | 12.2 | 0.00 | 0.00 | 0.00 | 42 | 1017.2 |
| 20260503182749 | 54 | 42 | 3.5 | 16.5 | 0.00 | 0.00 | 0.00 | 45 | 1017.1 |
| 20260503182248 | 56 | 61 | 3.5 | 6.1 | 0.00 | 0.00 | 0.00 | 50 | 1017.1 |
| 20260503181744 | 55 | 29 | 7.0 | 7.8 | 0.00 | 0.00 | 0.00 | 40 | 1017.3 |
| 20260503181241 | 54 | 13 | 3.5 | 16.5 | 0.00 | 0.00 | 0.00 | 47 | 1017.2 |
| 20260503180737 | 54 | 28 | 8.7 | 15.6 | 0.00 | 0.00 | 0.00 | 43 | 1017.4 |
| 20260503180236 | 54 | 116 | 11.3 | 11.3 | 0.00 | 0.00 | 0.00 | 42 | 1017.3 |
| 20260503175732 | 53 | 32 | 5.2 | 10.4 | 0.00 | 0.00 | 0.00 | 42 | 1017.4 |
| 20260503175230 | 55 | 48 | 8.7 | 10.4 | 0.00 | 0.00 | 0.00 | 42 | 1017.3 |
| 20260503174726 | 53 | 35 | 2.6 | 12.2 | 0.00 | 0.00 | 0.00 | 45 | 1017.6 |
| 20260503174224 | 53 | 43 | 7.0 | 8.7 | 0.00 | 0.00 | 0.00 | 44 | 1017.6 |
| 20260503173724 | 54 | 36 | 4.3 | 10.4 | 0.00 | 0.00 | 0.00 | 44 | 1017.3 |
| 20260503173221 | 55 | 61 | 7.0 | 7.8 | 0.00 | 0.00 | 0.00 | 44 | 1017.6 |
| 20260503172718 | 52 | 52 | 5.2 | 9.6 | 0.00 | 0.00 | 0.00 | 43 | 1017.6 |
| 20260503172215 | 53 | 55 | 8.7 | 12.2 | 0.00 | 0.00 | 0.00 | 43 | 1017.4 |
| 20260503171711 | 53 | 63 | 5.2 | 10.4 | 0.00 | 0.00 | 0.00 | 44 | 1017.6 |
| 20260503171208 | 54 | 109 | 11.3 | 13.0 | 0.00 | 0.00 | 0.00 | 45 | 1017.6 |
| 20260503170705 | 53 | 69 | 5.2 | 8.7 | 0.00 | 0.00 | 0.00 | 44 | 1017.6 |
| 20260503170202 | 54 | 85 | 7.8 | 10.4 | 0.00 | 0.00 | 0.00 | 45 | 1017.7 |
| 20260503160124 | 50 | 102 | 7.0 | 13.0 | 0.00 | 0.00 | 0.00 | 43 | 1018.3 |
| 20260503150553 | 49 | 113 | 2.6 | 10.4 | 0.00 | 0.00 | 0.00 | 49 | 1018.9 |
| 20260503130943 | 43 | 99 | 5.2 | 7.8 | 0.00 | 0.00 | 0.00 | 64 | 1019.2 |
| 20260503130441 | 42 | 79 | 4.3 | 7.0 | 0.00 | 0.00 | 0.00 | 64 | 1019.2 |
| 20260503110331 | 34 | 56 | 1.7 | 3.5 | 0.00 | 0.00 | 0.00 | 78 | 1018.5 |
| 20260503100257 | 32 | 247 | 0.9 | 2.6 | 0.00 | 0.00 | 0.00 | 82 | 1017.9 |
| 20260503090217 | 34 | 345 | 0.9 | 2.6 | 0.00 | 0.00 | 0.00 | 76 | 1017.9 |
| 20260503081144 | 34 | 222 | 0.9 | 1.7 | 0.00 | 0.00 | 0.00 | 74 | 1017.8 |
| 20260503080640 | 35 | 105 | 1.7 | 2.6 | 0.00 | 0.00 | 0.00 | 74 | 1017.6 |
| 20260503080137 | 34 | 302 | 1.7 | 1.7 | 0.00 | 0.00 | 0.00 | 74 | 1017.5 |
| 20260503072614 | 35 | 29 | 0.9 | 1.7 | 0.00 | 0.00 | 0.00 | 73 | 1017.4 |
| 20260503072111 | 35 | 103 | 0.0 | 4.3 | 0.00 | 0.00 | 0.00 | 72 | 1017.4 |
| 20260503071608 | 35 | 61 | 1.7 | 1.7 | 0.00 | 0.00 | 0.00 | 72 | 1017.5 |
| 20260503071104 | 35 | 313 | 1.7 | 2.6 | 0.00 | 0.00 | 0.00 | 72 | 1017.3 |
| 20260503070601 | 35 | 144 | 3.5 | 3.5 | 0.00 | 0.00 | 0.00 | 73 | 1017.2 |
| 20260503055020 | 36 | 29 | 0.9 | 1.7 | 0.00 | 0.00 | 0.00 | 69 | 1017.4 |
| 20260503054516 | 36 | 103 | 1.7 | 2.6 | 0.00 | 0.00 | 0.00 | 69 | 1017.4 |
| 20260503054014 | 37 | 147 | 0.0 | 1.7 | 0.00 | 0.00 | 0.00 | 68 | 1017.4 |
| 20260503053512 | 37 | 72 | 2.6 | 3.5 | 0.00 | 0.00 | 0.00 | 67 | 1017.5 |
| 20260503053009 | 38 | 19 | 3.5 | 5.2 | 0.00 | 0.00 | 0.00 | 65 | 1017.5 |
| 20260503052505 | 38 | 110 | 0.9 | 3.5 | 0.00 | 0.00 | 0.00 | 66 | 1017.5 |
| 20260503052002 | 38 | 62 | 5.2 | 6.1 | 0.00 | 0.00 | 0.00 | 65 | 1017.5 |
| 20260503051457 | 38 | 77 | 0.9 | 3.5 | 0.00 | 0.00 | 0.00 | 68 | 1017.6 |
| 20260503050956 | 38 | 21 | 1.7 | 1.7 | 0.00 | 0.00 | 0.00 | 67 | 1017.5 |
| 20260503050451 | 39 | 92 | 1.7 | 3.5 | 0.00 | 0.00 | 0.00 | 66 | 1017.5 |
| 20260503045949 | 39 | 72 | 2.6 | 4.3 | 0.00 | 0.00 | 0.00 | 67 | 1017.7 |
| 20260503045446 | 39 | 66 | 2.6 | 5.2 | 0.00 | 0.00 | 0.00 | 67 | 1017.5 |